[[{"header":{"parameterUnit":"m.s-1","parameterCategory":1,"la1":30.2991,"la2":30.254,"lo1":-89.0895,"lo2":-89.0444,"dy":0.0017,"dx":0.0017,"nx":28,"ny":28,"refTime":"2024-05-20T09:00:00:Z","depth":0,"parameterNumber":2,"parameterNumberName":"U-component_of_WINDS"},"data":[0,0,0,0,0,0,0,0,0,0,0,0,0,0,0,0,0,0,0,0,0,0,0,0,0,0,0,0,0,0,0,0,0,0,0,0,0,0,0,0,0,0,0,0,0,0,0,0,0,0,0,0,0,0,0,0,0,0,-2.3003,-2.3002,0,-2.2983,-2.2982,-2.2982,-2.2925,-2.2923,-2.2922,-2.2921,-2.2901,-2.2901,-2.2902,0,0,0,0,0,0,0,0,0,0,0,0,0,-2.2993,-2.2994,-2.3003,-2.3002,-2.3002,-2.2983,-2.2982,-2.2982,-2.2925,-2.2923,-2.2922,-2.292,-2.2901,-2.2901,-2.2902,0,0,0,0,0,0,0,0,0,0,0,0,0,-2.2988,-2.2994,-2.3003,-2.2971,-2.2968,-2.2983,-2.2982,-2.2982,-2.2925,-2.2923,-2.2921,-2.292,-2.29,-2.2901,-2.2902,-2.2946,0,0,-2.2905,-2.2905,0,0,0,0,0,0,0,0,-2.2988,-2.2988,-2.2976,-2.2973,-2.297,-2.2954,-2.2972,-2.297,-2.2926,-2.2942,-2.2921,-2.2919,-2.292,-2.2919,-2.292,-2.2945,-2.2944,-2.2905,-2.2906,-2.2906,-2.2906,0,0,0,0,0,0,0,-2.2989,-2.2989,-2.2995,-2.2976,-2.2972,-2.2959,-2.2956,-2.2971,-2.2942,-2.294,-2.2936,-2.2934,-2.2918,-2.2919,-2.2919,-2.2943,-2.2905,-2.2906,-2.2907,-2.2907,-2.3004,-2.3006,0,0,0,0,0,0,-2.2993,-2.2989,-2.2995,-2.2994,-2.2975,-2.296,-2.2957,-2.2961,-2.2941,-2.2936,-2.2936,-2.2932,-2.2918,-2.2918,-2.2918,-2.2967,-2.2906,-2.2907,-2.2908,-2.3002,-2.3005,-2.3007,0,0,0,0,0,0,-2.2993,-2.2994,-2.2996,-2.2991,-2.299,-2.2963,-2.2968,-2.2962,-2.2962,-2.2938,-2.2933,-2.2942,-2.2917,-2.2917,-2.2939,-2.2966,-2.2907,-2.2908,-2.3,-2.3003,-2.3006,-2.3067,0,0,0,0,0,0,-2.2993,-2.2995,-2.301,-2.2991,-2.299,-2.3018,-2.2969,-2.2963,-2.2964,-2.2958,-2.2942,-2.2938,-2.2915,-2.2938,-2.294,-2.2966,-2.2909,-2.2997,-2.3001,-2.3005,-2.3062,-2.3072,-2.308,0,0,0,0,0,-2.2993,-2.3028,-2.3011,-2.3012,-2.3009,-2.3019,-2.3019,-2.2992,-2.2967,-2.2982,-2.2967,-2.2938,-2.2963,-2.2941,-2.2943,-2.2969,-2.2995,-2.3,-2.3004,-2.3059,-2.307,-2.308,0,0,0,0,0,0,-2.3051,-2.3025,-2.3006,-2.3036,-2.303,-2.3009,-2.3028,-2.3004,-2.3006,-2.3,-2.2967,-2.2964,-2.2991,-2.2983,-2.2959,-2.3011,-2.2975,-2.298,-2.3015,-2.3026,-2.3034,-2.3035,-2.291,0,0,0,0,0,-2.3067,-2.3077,-2.3054,-2.3083,-2.3081,-2.3056,-2.3059,-2.3039,-2.3031,-2.3029,-2.3015,-2.3009,-2.3016,-2.302,-2.3025,-2.3062,-2.3058,-2.3081,-2.309,-2.3097,-2.3101,-2.3121,-2.3131,-2.3022,-2.3022,-2.3021,0,0,-2.3101,-2.3088,-2.3096,-2.3094,-2.3087,-2.3099,-2.3054,-2.3067,-2.3076,-2.3031,-2.3051,-2.3041,-2.3033,-2.3063,-2.3076,-2.3057,-2.3131,-2.3103,-2.3109,-2.3109,-2.3127,-2.3137,-2.3146,-2.3025,-2.3024,-2.3024,0,0,-2.3167,-2.3159,-2.3182,-2.3176,-2.3167,-2.315,-2.3156,-2.3139,-2.313,-2.3151,-2.3117,-2.3127,-2.3139,-2.3135,-2.3134,-2.3201,-2.3175,-2.3204,-2.3249,-2.3268,-2.3277,-2.3284,-2.3308,-2.3317,-2.3209,-2.3209,-2.3209,0,-2.321,-2.3225,-2.3197,-2.3213,-2.3214,-2.3174,-2.3198,-2.3194,-2.3186,-2.3188,-2.3167,-2.3182,-2.3173,-2.3202,-2.3219,-2.322,-2.3226,-2.3205,-2.3278,-2.3285,-2.3291,-2.3314,-2.3323,-2.3213,-2.3212,-2.3212,-2.3211,0,-2.3279,-2.329,-2.331,-2.3304,-2.3307,-2.3327,-2.3302,-2.3309,-2.329,-2.3275,-2.3297,-2.3286,-2.3288,-2.3293,-2.3274,-2.332,-2.3309,-2.3284,-2.3246,-2.3306,-2.3326,-2.3335,-2.3218,-2.3216,-2.3215,-2.3214,0,0,-2.3379,-2.3359,-2.3366,-2.3363,-2.3351,-2.3359,-2.3378,-2.338,-2.3387,-2.3384,-2.3399,-2.3411,-2.3388,-2.3387,-2.3368,-2.3385,-2.3439,-2.3357,-2.3357,-2.3373,-2.3489,-2.3508,-2.3518,-2.3423,-2.3424,-2.3425,-2.349,0,-2.3442,-2.3472,-2.3448,-2.3483,-2.3494,-2.3457,-2.3474,-2.3469,-2.3456,-2.3464,-2.3451,-2.3459,-2.3428,-2.3428,-2.3443,-2.3429,-2.3462,-2.3425,-2.3436,-2.3437,-2.3439,-2.3529,-2.3549,-2.361,-2.3498,-2.3499,-2.35,0,-2.3519,-2.3519,-2.3556,-2.3542,-2.3545,-2.356,-2.3561,-2.3569,-2.3563,-2.3553,-2.3553,-2.3529,-2.3547,-2.3512,-2.3537,-2.3512,-2.3516,-2.351,-2.3512,-2.3511,-2.3472,-2.353,-2.3629,-2.3638,-2.3513,-2.3512,-2.3511,0,-2.3588,-2.3598,-2.3621,-2.362,-2.3605,-2.3616,-2.3611,-2.3602,-2.3606,-2.3607,-2.3609,-2.3612,-2.3614,-2.3617,-2.3595,-2.3571,-2.3623,-2.3586,-2.3616,-2.3616,-2.3627,-2.3627,-2.3727,-2.3631,-2.3631,-2.3631,-2.3631,0,-2.366,-2.3684,-2.3652,-2.3667,-2.3692,-2.3665,-2.3691,-2.3682,-2.3675,-2.3687,-2.3657,-2.3669,-2.364,-2.3649,-2.3632,-2.3656,-2.3657,-2.365,-2.3645,-2.3652,-2.3653,-2.3653,-2.3648,-2.3633,-2.3633,-2.3632,-2.3632,0,-2.3742,-2.3722,-2.3744,-2.3728,-2.3725,-2.3745,-2.3731,-2.3744,-2.373,-2.3746,-2.3749,-2.3727,-2.3737,-2.3716,-2.3723,-2.3711,-2.3745,-2.3734,-2.3747,-2.3743,-2.3774,-2.3772,-2.3878,-2.3891,-2.3787,-2.3788,-2.3789,0,-2.3789,-2.3806,-2.3792,-2.3798,-2.3794,-2.3804,-2.3807,-2.3782,-2.3787,-2.3782,-2.3796,-2.3803,-2.3807,-2.3825,-2.381,-2.3815,-2.3804,-2.3841,-2.3804,-2.3811,-2.3804,-2.3803,-2.3805,-2.3848,-2.3849,-2.385,-2.3851,0,-2.3874,-2.3864,-2.387,-2.3873,-2.3878,-2.3879,-2.3878,-2.3885,-2.3858,-2.3865,-2.3875,-2.3878,-2.3885,-2.3893,-2.3896,-2.389,-2.3866,-2.3863,-2.387,-2.3877,-2.3884,-2.388,-2.3767,-2.386,-2.3859,-2.3858,-2.3858,-2.3858,-2.394,-2.3954,-2.3946,-2.3954,-2.3951,-2.3951,-2.3963,-2.3951,-2.3958,-2.3962,-2.3947,-2.3961,-2.3955,-2.3956,-2.3953,-2.3963,-2.3947,-2.3957,-2.396,-2.3963,-2.3968,-2.3883,-2.3964,-2.3964,-2.3963,-2.3963,-2.3963,0,-2.4023,-2.4017,-2.4025,-2.4025,-2.4032,-2.4009,-2.4007,-2.4014,-2.4026,-2.4023,-2.4029,-2.404,-2.4048,-2.4035,-2.4041,-2.4052,-2.4041,-2.4054,-2.4053,-2.4052,-2.3982,-2.3975,-2.4063,-2.4063,-2.4063,-2.4063,-2.4063,-2.4063,-2.4068,-2.409,-2.4079,-2.4101,-2.4094,-2.4107,-2.4108,-2.4109,-2.4106,-2.412,-2.4127,-2.4118,-2.4111,-2.4117,-2.4123,-2.4119,-2.4123,-2.414,-2.4132,-2.4067,-2.4057,-2.4047,-2.4041,-2.4141,-2.4141,-2.4201,-2.4201,-2.4202]},{"header":{"parameterUnit":"m.s-1","parameterCategory":1,"la1":30.2991,"la2":30.254,"lo1":-89.0895,"lo2":-89.0444,"dy":0.0017,"dx":0.0017,"nx":28,"ny":28,"refTime":"2024-05-20T09:00:00:Z","depth":0,"parameterNumber":3,"parameterNumberName":"V-component_of_WINDS"},"data":[0,0,0,0,0,0,0,0,0,0,0,0,0,0,0,0,0,0,0,0,0,0,0,0,0,0,0,0,0,0,0,0,0,0,0,0,0,0,0,0,0,0,0,0,0,0,0,0,0,0,0,0,0,0,0,0,0,0,2.7696,2.7696,0,2.7734,2.7735,2.7735,2.7753,2.7753,2.7753,2.7753,2.7789,2.779,2.7791,0,0,0,0,0,0,0,0,0,0,0,0,0,2.7635,2.7636,2.7696,2.7696,2.7697,2.7734,2.7735,2.7735,2.7753,2.7753,2.7753,2.7753,2.7789,2.779,2.7791,0,0,0,0,0,0,0,0,0,0,0,0,0,2.7666,2.7637,2.7696,2.771,2.7712,2.7734,2.7735,2.7735,2.7753,2.7753,2.7753,2.7753,2.7788,2.779,2.7791,2.7801,0,0,2.7796,2.7797,0,0,0,0,0,0,0,0,2.7665,2.7669,2.7708,2.7709,2.7711,2.7739,2.7727,2.7757,2.7753,2.7737,2.7753,2.7753,2.7772,2.7775,2.7782,2.7803,2.7804,2.7796,2.7797,2.7798,2.7798,0,0,0,0,0,0,0,2.7662,2.7667,2.7711,2.7708,2.771,2.7714,2.7718,2.7733,2.7754,2.7739,2.774,2.7745,2.7773,2.7781,2.7783,2.7805,2.7796,2.7797,2.7798,2.7799,2.7837,2.7837,0,0,0,0,0,0,2.7658,2.7665,2.771,2.7712,2.7687,2.7715,2.772,2.773,2.7754,2.7758,2.7745,2.7745,2.7778,2.7782,2.7785,2.7799,2.7798,2.7799,2.78,2.7836,2.7837,2.7837,0,0,0,0,0,0,2.7657,2.7662,2.7708,2.7689,2.7695,2.7716,2.7727,2.7731,2.7738,2.7759,2.7762,2.7749,2.7778,2.7783,2.7797,2.78,2.78,2.7801,2.7836,2.7836,2.7837,2.7826,0,0,0,0,0,0,2.7655,2.7662,2.7666,2.7689,2.7696,2.7721,2.7727,2.7732,2.7741,2.7743,2.7764,2.7767,2.7779,2.7795,2.7799,2.7802,2.7802,2.7836,2.7836,2.7837,2.7826,2.7826,2.7825,0,0,0,0,0,2.7653,2.766,2.7666,2.7671,2.7702,2.7721,2.7725,2.774,2.7741,2.7746,2.7759,2.7766,2.7799,2.7796,2.7801,2.7805,2.7836,2.7836,2.7837,2.7826,2.7826,2.7825,0,0,0,0,0,0,2.7635,2.7664,2.767,2.7686,2.7701,2.7724,2.773,2.7738,2.7753,2.7753,2.7769,2.7774,2.7787,2.7797,2.7794,2.7816,2.7818,2.7819,2.7809,2.7809,2.7808,2.7806,2.7803,0,0,0,0,0,2.7634,2.7648,2.7671,2.7682,2.769,2.7709,2.7717,2.7727,2.7743,2.775,2.7764,2.7779,2.7792,2.7801,2.7815,2.7828,2.7833,2.7832,2.7832,2.7832,2.7832,2.7841,2.7841,2.7838,2.7838,2.7838,0,0,2.763,2.7647,2.7654,2.7679,2.7692,2.7706,2.7714,2.7727,2.7738,2.7751,2.7767,2.7778,2.7795,2.781,2.7817,2.7818,2.7835,2.7832,2.7831,2.7833,2.7841,2.7842,2.7842,2.7838,2.7838,2.7838,0,0,2.7629,2.7644,2.7655,2.7669,2.7689,2.7702,2.7704,2.7727,2.7735,2.7751,2.7762,2.7774,2.7797,2.7809,2.7818,2.7824,2.7831,2.7828,2.7826,2.7834,2.7834,2.7835,2.7838,2.7838,2.7829,2.7829,2.7829,0,2.7622,2.7643,2.766,2.7674,2.7684,2.7699,2.7711,2.7722,2.7746,2.7752,2.7754,2.7785,2.7797,2.7815,2.7817,2.7823,2.7827,2.7826,2.7833,2.7834,2.7834,2.7837,2.7838,2.7828,2.7828,2.7828,2.7828,0,2.7633,2.7648,2.7655,2.7679,2.769,2.7702,2.772,2.773,2.7739,2.7751,2.7768,2.7784,2.7801,2.7806,2.7814,2.7825,2.7826,2.783,2.7833,2.7834,2.7837,2.7838,2.7828,2.7828,2.7828,2.7828,0,0,2.7622,2.7656,2.7659,2.767,2.7694,2.7706,2.7719,2.7737,2.7746,2.7761,2.7773,2.7792,2.7797,2.7808,2.7817,2.7824,2.7829,2.7828,2.7829,2.7828,2.7843,2.784,2.7841,2.7834,2.7834,2.7834,2.7842,0,2.7626,2.7652,2.7667,2.7686,2.7701,2.7715,2.7727,2.7742,2.7754,2.7767,2.778,2.7795,2.7799,2.7806,2.7813,2.7827,2.7832,2.7826,2.7845,2.7845,2.784,2.7842,2.7839,2.7845,2.7843,2.7843,2.7843,0,2.7633,2.7651,2.7671,2.7695,2.7702,2.7712,2.7731,2.7743,2.7761,2.777,2.7782,2.7792,2.7807,2.7808,2.7828,2.7824,2.7832,2.784,2.784,2.7843,2.7844,2.7845,2.7847,2.7848,2.7845,2.7845,2.7845,0,2.7625,2.7652,2.7669,2.7678,2.7706,2.7713,2.7725,2.7743,2.7754,2.777,2.7777,2.7794,2.7803,2.7816,2.783,2.783,2.7849,2.7851,2.7856,2.7856,2.7859,2.7859,2.7863,2.7864,2.7864,2.7864,2.7864,0,2.7627,2.7639,2.7666,2.7676,2.769,2.7708,2.7721,2.7734,2.775,2.7763,2.7776,2.7787,2.7805,2.7819,2.783,2.7845,2.7849,2.7856,2.7859,2.7855,2.7854,2.7861,2.7861,2.7864,2.7864,2.7864,2.7864,0,2.762,2.7638,2.7657,2.7682,2.7689,2.7698,2.772,2.773,2.7743,2.7759,2.7763,2.7783,2.78,2.7816,2.7837,2.7845,2.786,2.7864,2.7855,2.7856,2.786,2.786,2.7869,2.7872,2.787,2.787,2.787,0,2.762,2.763,2.7657,2.7668,2.7679,2.7695,2.7707,2.7724,2.7735,2.7758,2.7765,2.7783,2.7798,2.7824,2.784,2.7857,2.7861,2.7863,2.7864,2.786,2.7862,2.7861,2.7863,2.7863,2.7863,2.7863,2.7863,0,2.762,2.7629,2.7645,2.7665,2.7679,2.7695,2.7712,2.7719,2.774,2.7751,2.777,2.7782,2.7805,2.7822,2.7841,2.7852,2.7861,2.7863,2.7865,2.7861,2.7856,2.7859,2.7854,2.7862,2.7862,2.7862,2.7862,2.7862,2.7617,2.7627,2.7648,2.7666,2.7681,2.7697,2.7708,2.7723,2.7739,2.776,2.7769,2.7788,2.7806,2.7833,2.7844,2.7858,2.786,2.7863,2.7863,2.7864,2.7864,2.7853,2.7861,2.7861,2.7861,2.7861,2.7861,0,2.7618,2.7632,2.7649,2.7673,2.7687,2.7696,2.7715,2.7726,2.7742,2.7759,2.7775,2.7795,2.7813,2.7831,2.7849,2.7857,2.7862,2.7861,2.7861,2.7864,2.786,2.7857,2.7857,2.7857,2.7857,2.7857,2.7857,2.7857,2.762,2.7638,2.7649,2.7675,2.7689,2.7708,2.7719,2.7733,2.7747,2.777,2.7785,2.7797,2.7815,2.7835,2.7851,2.7856,2.7862,2.7861,2.7867,2.7863,2.7864,2.7864,2.7861,2.7862,2.7862,2.7869,2.7869,2.7869]}]]